Weather History for Randolph AFB, TX

Change the Weather History Date:

Tuesday, July 22, 2014

  Actual Average Record
Temperature  
Mean Temperature 84 °F -  
Max Temperature 96 °F 93 °F 102 °F (1996)
Min Temperature 73 °F 72 °F 68 °F (2001)
Cooling Degree Days 20    
Growing Degree Days 34 (Base 50)    
Moisture  
Dew Point 69 °F    
Average Humidity 71    
Maximum Humidity 95    
Minimum Humidity 29    
Precipitation  
Precipitation 0.00 in - - ()
Sea Level Pressure  
Sea Level Pressure 30.02 in    
Wind  
Wind Speed 4 mph (SE)    
Max Wind Speed 9 mph    
Max Gust Speed -    
Visibility 9 miles    
Events      
Averages and records for this station are not official NWS values.
T = Trace of Precipitation, MM = Missing Value Source: NWS Daily Summary

Daily Weather History Graph

Daily Weather History Graph

Search for Another Location

Airport:

Trip Planner

Search our weather history database for the weather conditions in past years. The results will help you decide how hot, cold, wet, or windy it might be!

Date:

Astronomy

Jul. 22, 2014 Rise Set
Actual Time 6:47 AM CDT 8:31 PM CDT
Civil Twilight 6:20 AM CDT 8:57 PM CDT
Nautical Twilight 5:49 AM CDT 9:29 PM CDT
Astronomical Twilight 5:15 AM CDT 10:02 PM CDT
Moon 3:18 AM CDT (7/22) 5:12 PM CDT (7/22)
Length of Visible Light 14h 37m
Length of Day
13h 44m
Waning Crescent, 16% of the Moon is Illuminated
Jul 22
Waning Crescent
Jul 26
New
Aug 3
First Quarter
Aug 10
Full
Aug 17
Last Quarter

Hourly Weather History & Observations

Time (CDT) Temp. Heat Index Dew Point Humidity Pressure Visibility Wind Dir Wind Speed Gust Speed Precip Events Conditions
12:58 AM 77.7 °F - 71.8 °F 82% 29.99 in 10.0 mi SE 5.8 mph - N/A   Clear
1:58 AM 77.2 °F - 71.8 °F 83% 30.00 in 10.0 mi East 2.3 mph - N/A   Clear
2:58 AM 75.2 °F - 71.8 °F 89% 30.00 in 10.0 mi East 4.6 mph - N/A   Clear
3:58 AM 74.7 °F - 72.0 °F 91% 29.99 in 10.0 mi East 2.3 mph - N/A   Clear
4:48 AM 75.2 °F - 71.6 °F 89% 30.03 in 10.0 mi SSE 3.5 mph - N/A   Mostly Cloudy
4:58 AM 75.2 °F - 72.9 °F 92% 30.01 in 10.0 mi SSE 4.6 mph - N/A   Overcast
5:28 AM 75.2 °F - 73.4 °F 94% 30.03 in 10.0 mi SSE 5.8 mph - N/A   Scattered Clouds
5:58 AM 74.1 °F - 72.3 °F 94% 30.01 in 10.0 mi SSE 4.6 mph - N/A   Clear
6:03 AM 73.4 °F - 71.6 °F 94% 30.04 in 9.0 mi SE 5.8 mph - N/A   Clear
6:27 AM 73.4 °F - 71.6 °F 94% 30.04 in 7.0 mi ESE 2.3 mph - N/A   Partly Cloudy
6:32 AM 73.4 °F - 71.6 °F 94% 30.05 in 7.0 mi East 2.3 mph - N/A   Scattered Clouds
6:42 AM 73.4 °F - 71.6 °F 94% 30.05 in 6.0 mi ESE 2.3 mph - N/A   Mostly Cloudy
6:58 AM 73.8 °F - 72.3 °F 95% 30.04 in 6.0 mi ENE 1.2 mph - N/A   Mostly Cloudy
7:58 AM 75.2 °F - 73.8 °F 95% 30.05 in 7.0 mi SE 2.3 mph - 0.00 in   Mostly Cloudy
8:37 AM 77.0 °F - 73.4 °F 89% 30.08 in 10.0 mi SSE 4.6 mph - N/A   Overcast
8:58 AM 77.7 °F - 73.6 °F 87% 30.06 in 10.0 mi SSE 4.6 mph - N/A   Mostly Cloudy
9:58 AM 80.1 °F 84.0 °F 72.3 °F 77% 30.06 in 10.0 mi SW 6.9 mph - N/A   Overcast
10:13 AM 82.4 °F 87.2 °F 71.6 °F 70% 30.08 in 10.0 mi South 6.9 mph - N/A   Scattered Clouds
10:58 AM 84.0 °F 89.0 °F 71.1 °F 65% 30.06 in 10.0 mi South 8.1 mph - N/A   Partly Cloudy
11:58 AM 85.5 °F 90.8 °F 71.2 °F 62% 30.06 in 10.0 mi South 5.8 mph - N/A   Partly Cloudy
12:58 PM 88.2 °F 92.9 °F 69.8 °F 54% 30.05 in 10.0 mi Variable 3.5 mph - N/A   Mostly Cloudy
1:58 PM 90.0 °F 95.9 °F 70.5 °F 53% 30.03 in 10.0 mi Variable 5.8 mph - N/A   Mostly Cloudy
2:58 PM 92.7 °F 96.2 °F 67.5 °F 43% 30.01 in 10.0 mi Variable 1.2 mph - N/A   Partly Cloudy
3:58 PM 93.7 °F 98.2 °F 68.4 °F 43% 30.00 in 10.0 mi SSW 3.5 mph - N/A   Partly Cloudy
4:58 PM 95.5 °F 97.4 °F 63.7 °F 35% 29.97 in 10.0 mi East 4.6 mph - N/A   Clear
5:58 PM 96.1 °F 95.6 °F 58.8 °F 29% 29.96 in 10.0 mi Variable 2.3 mph - N/A   Clear
6:58 PM 95.4 °F 95.3 °F 60.3 °F 31% 29.96 in 10.0 mi SE 9.2 mph - N/A   Clear
7:58 PM 92.5 °F 92.6 °F 60.8 °F 35% 29.96 in 10.0 mi East 5.8 mph - N/A   Clear
8:58 PM 88.3 °F 88.6 °F 61.7 °F 41% 29.98 in 10.0 mi East 3.5 mph - N/A   Clear
9:58 PM 85.8 °F 87.1 °F 64.0 °F 48% 30.00 in 10.0 mi NE 5.8 mph - N/A   Clear
10:58 PM 82.9 °F 85.0 °F 65.7 °F 56% 30.01 in 10.0 mi ENE 4.6 mph - N/A   Clear
11:58 PM 82.2 °F 84.7 °F 67.1 °F 60% 30.03 in 10.0 mi ENE 3.5 mph - N/A   Clear